Starlink 5090

operational
NORAD ID: 56137 Int'l Des: 2023-046 Owner: SPXS Country: US Constellation: starlink
LEOCIRCULAR

About Starlink 5090

Description loading...

Live Position

Loading 3D Globe...

Upcoming Passes

Altitude History

Altitude vs Time

uPlot chart will show altitude changes over time

Two-Line Element Set

1 56137U 23046AX 25312.75719505 .00000370 00000-0 42474-4 0 9994
2 56137 43.0044 82.8144 0001281 280.3574 79.7124 15.02536242144028
Epoch: Nov 8, 2025 • Age: 59 hours

Current Status

Altitude 558.6 km
Velocity 7.58 km/s
Sub-Earth Point -1.02°S, 60.22°W
Launch Date Mar 29, 2023
Age 2.6 years
Type internet

Technical Details

Classification Payload
Mass 305.00 kg
Dry Mass 290.00 kg
Total Mass 305.00 kg
Length 0.20 m
Diameter 2.80 m
Span 9.00 m
Shape Box + pan
Manufacturer SPXS
Bus Type Starlink
Phase Status In Orbit
Owner/State SPXS/US

Large Constellations

Loading constellations...